Time,TemperatureF,DewpointF,PressureIn,WindDirection,WindDirectionDegrees,WindSpeedMPH,WindSpeedGustMPH,Humidity,HourlyPrecipIn,Conditions,Clouds,dailyrainin,SolarRadiationWatts/m^2,SoftwareType,DateUTC
2013-01-09 00:00:00,75.1,72.0,30.18,ENE,73,4.0,8.1,90,0.00,CLR,,0.55,0.0,WeatherDisplay:10.37,2013-01-09 05:00:00,
2013-01-09 00:02:00,75.1,72.0,30.17,East,88,4.5,8.0,90,0.00,RA,,0.00,0.0,WeatherDisplay:10.37,2013-01-09 05:02:00,
2013-01-09 00:03:00,75.1,72.0,30.17,ESE,102,4.7,8.1,90,0.00,RA,,0.00,0.0,WeatherDisplay:10.37,2013-01-09 05:03:00,
2013-01-09 00:08:00,75.1,72.0,30.17,East,85,2.5,8.0,90,0.00,RA,,0.00,0.0,WeatherDisplay:10.37,2013-01-09 05:08:00,
2013-01-09 00:13:00,75.2,72.1,30.17,ESE,112,3.4,6.9,90,0.00,CLR,,0.00,0.0,WeatherDisplay:10.37,2013-01-09 05:13:00,
2013-01-09 00:18:00,75.3,71.8,30.17,ENE,72,4.6,8.1,89,0.00,CLR,,0.00,0.0,WeatherDisplay:10.37,2013-01-09 05:18:00,
2013-01-09 00:23:00,75.3,72.2,30.17,NE,47,1.4,4.6,90,0.00,CLR,,0.00,0.0,WeatherDisplay:10.37,2013-01-09 05:23:00,
2013-01-09 00:28:00,75.2,72.1,30.17,ESE,119,2.2,8.0,90,0.00,CLR,,0.00,0.0,WeatherDisplay:10.37,2013-01-09 05:28:00,
2013-01-09 00:33:00,75.2,72.4,30.17,East,98,4.5,9.2,91,0.00,CLR,,0.00,0.0,WeatherDisplay:10.37,2013-01-09 05:33:00,
2013-01-09 00:38:00,75.0,72.2,30.17,SSE,147,2.8,6.0,91,0.09,RA,,0.10,0.0,WeatherDisplay:10.37,2013-01-09 05:38:00,
2013-01-09 00:43:00,74.2,71.1,30.17,SE,130,3.8,6.0,90,0.11,RA,,0.11,0.0,WeatherDisplay:10.37,2013-01-09 05:43:00,
2013-01-09 00:48:00,73.6,70.8,30.17,East,101,2.2,4.6,91,0.11,RA,,0.11,0.0,WeatherDisplay:10.37,2013-01-09 05:48:00,
2013-01-09 00:54:00,73.2,70.7,30.17,East,90,2.5,5.0,92,0.11,CLR,,0.11,0.0,WeatherDisplay:10.37,2013-01-09 05:54:00,
2013-01-09 00:59:00,73.0,70.9,30.17,SE,129,1.0,3.5,93,0.11,CLR,,0.11,0.0,WeatherDisplay:10.37,2013-01-09 05:59:00,
2013-01-09 01:04:00,72.9,70.8,30.17,ENE,65,0.5,2.3,93,0.11,CLR,,0.11,0.0,WeatherDisplay:10.37,2013-01-09 06:04:00,
2013-01-09 01:09:00,72.9,71.1,30.17,ESE,116,1.8,3.5,94,0.11,CLR,,0.11,0.0,WeatherDisplay:10.37,2013-01-09 06:09:00,
2013-01-09 01:14:00,72.9,71.1,30.17,SE,126,2.2,4.6,94,0.11,CLR,,0.11,0.0,WeatherDisplay:10.37,2013-01-09 06:14:00,
2013-01-09 01:19:00,72.9,71.1,30.17,ESE,115,1.6,3.5,94,0.11,CLR,,0.11,0.0,WeatherDisplay:10.37,2013-01-09 06:19:00,
2013-01-09 01:25:00,73.1,71.3,30.17,ESE,117,2.9,8.1,94,0.11,CLR,,0.11,0.0,WeatherDisplay:10.37,2013-01-09 06:25:00,
2013-01-09 01:30:00,73.4,71.9,30.17,ESE,103,4.8,8.1,95,0.11,CLR,,0.11,0.0,WeatherDisplay:10.37,2013-01-09 06:30:00,
2013-01-09 01:35:00,73.5,71.7,30.18,ESE,108,4.8,11.0,94,0.11,CLR,,0.11,0.0,WeatherDisplay:10.37,2013-01-09 06:35:00,
2013-01-09 01:40:00,73.4,71.3,30.18,SSE,150,4.3,5.8,93,0.00,CLR,,0.11,0.0,WeatherDisplay:10.37,2013-01-09 06:40:00,
2013-01-09 01:45:00,73.3,71.2,30.18,ESE,113,4.4,9.2,93,0.00,CLR,,0.11,0.0,WeatherDisplay:10.37,2013-01-09 06:45:00,
2013-01-09 01:50:00,73.3,71.2,30.18,ESE,107,4.6,8.1,93,0.00,CLR,,0.11,0.0,WeatherDisplay:10.37,2013-01-09 06:50:00,
2013-01-09 01:55:00,73.3,71.2,30.17,East,101,5.1,8.1,93,0.00,CLR,,0.11,0.0,WeatherDisplay:10.37,2013-01-09 06:55:00,
2013-01-09 02:00:00,73.4,71.3,30.17,SE,139,3.4,4.6,93,0.00,CLR,,0.11,0.0,WeatherDisplay:10.37,2013-01-09 07:00:00,
2013-01-09 02:05:00,73.5,71.4,30.17,SE,128,5.5,8.1,93,0.00,CLR,,0.11,0.0,WeatherDisplay:10.37,2013-01-09 07:05:00,
2013-01-09 02:10:00,73.6,71.4,30.17,ENE,72,4.7,8.1,93,0.00,CLR,,0.11,0.0,WeatherDisplay:10.37,2013-01-09 07:10:00,
2013-01-09 02:15:00,73.6,71.4,30.17,East,94,6.4,10.4,93,0.00,CLR,,0.11,0.0,WeatherDisplay:10.37,2013-01-09 07:15:00,
2013-01-09 02:20:00,73.6,71.4,30.17,SE,127,4.1,8.1,93,0.00,CLR,,0.11,0.0,WeatherDisplay:10.37,2013-01-09 07:20:00,
2013-01-09 02:25:00,73.6,71.4,30.17,ESE,120,6.1,10.4,93,0.00,CLR,,0.11,0.0,WeatherDisplay:10.37,2013-01-09 07:25:00,
2013-01-09 02:30:00,73.6,71.4,30.17,ESE,104,2.6,8.1,93,0.00,CLR,,0.11,0.0,WeatherDisplay:10.37,2013-01-09 07:30:00,
2013-01-09 02:36:00,73.6,71.4,30.17,SSE,157,3.7,9.2,93,0.00,CLR,,0.11,0.0,WeatherDisplay:10.37,2013-01-09 07:36:00,
2013-01-09 02:41:00,73.6,71.4,30.17,East,89,2.3,6.9,93,0.00,CLR,,0.11,0.0,WeatherDisplay:10.37,2013-01-09 07:41:00,
2013-01-09 02:46:00,73.6,71.4,30.17,SSE,153,3.9,9.2,93,0.00,CLR,,0.11,0.0,WeatherDisplay:10.37,2013-01-09 07:46:00,
2013-01-09 02:51:00,73.6,71.4,30.17,ESE,112,1.6,3.5,93,0.00,CLR,,0.11,0.0,WeatherDisplay:10.37,2013-01-09 07:51:00,
2013-01-09 02:56:00,73.6,71.1,30.17,East,96,3.3,6.9,92,0.00,CLR,,0.11,0.0,WeatherDisplay:10.37,2013-01-09 07:56:00,
2013-01-09 03:01:00,73.6,71.1,30.17,ESE,111,2.1,4.0,92,0.00,CLR,,0.11,0.0,WeatherDisplay:10.37,2013-01-09 08:01:00,
2013-01-09 03:06:00,73.5,71.0,30.17,ESE,111,1.1,4.6,92,0.00,CLR,,0.11,0.0,WeatherDisplay:10.37,2013-01-09 08:06:00,
2013-01-09 03:11:00,73.4,70.9,30.18,ESE,119,1.3,4.0,92,0.00,CLR,,0.11,0.0,WeatherDisplay:10.37,2013-01-09 08:11:00,
2013-01-09 03:16:00,73.4,70.9,30.18,East,98,0.0,1.1,92,0.00,CLR,,0.11,0.0,WeatherDisplay:10.37,2013-01-09 08:16:00,
2013-01-09 03:21:00,73.4,71.3,30.18,ESE,110,1.0,3.5,93,0.00,CLR,,0.11,0.0,WeatherDisplay:10.37,2013-01-09 08:21:00,
2013-01-09 03:26:00,73.5,71.4,30.18,ESE,110,0.5,2.3,93,0.00,CLR,,0.11,0.0,WeatherDisplay:10.37,2013-01-09 08:26:00,
2013-01-09 03:31:00,73.7,71.5,30.18,East,101,2.0,5.0,93,0.00,CLR,,0.11,0.0,WeatherDisplay:10.37,2013-01-09 08:31:00,
2013-01-09 04:31:00,72.6,70.5,30.19,ESE,108,3.0,11.0,93,0.02,RA,RA,0.17,0.0,WeatherDisplay:10.37,2013-01-09 09:31:00,
2013-01-09 04:36:00,72.6,70.5,30.19,ESE,110,3.0,11.0,93,0.06,RA,RA,0.17,0.0,WeatherDisplay:10.37,2013-01-09 09:36:00,
2013-01-09 04:41:00,72.6,70.5,30.19,ESE,112,3.0,11.0,93,0.00,CLR,CLR,0.17,0.0,WeatherDisplay:10.37,2013-01-09 09:41:00,
2013-01-09 04:46:00,72.6,70.5,30.19,ESE,112,3.0,11.0,93,0.00,CLR,CLR,0.17,0.0,WeatherDisplay:10.37,2013-01-09 09:46:00,
2013-01-09 04:51:00,72.6,70.5,30.19,ESE,112,3.0,11.0,93,0.00,CLR,CLR,0.17,0.0,WeatherDisplay:10.37,2013-01-09 09:51:00,
2013-01-09 04:56:00,72.6,70.5,30.19,ESE,112,3.0,11.0,93,0.00,CLR,CLR,0.17,0.0,WeatherDisplay:10.37,2013-01-09 09:56:00,
2013-01-09 05:01:00,72.8,71.0,30.19,ESE,112,3.0,15.0,94,0.01,RA,RA,0.18,0.0,WeatherDisplay:10.37,2013-01-09 10:01:00,
2013-01-09 05:06:00,72.8,71.0,30.19,ESE,112,3.0,15.0,94,0.01,RA,RA,0.18,0.0,WeatherDisplay:10.37,2013-01-09 10:06:00,
2013-01-09 05:11:00,72.8,71.0,30.19,ESE,112,3.0,15.0,94,0.00,CLR,CLR,0.18,0.0,WeatherDisplay:10.37,2013-01-09 10:11:00,
2013-01-09 05:16:00,72.8,71.0,30.19,ESE,112,3.0,15.0,94,0.00,CLR,CLR,0.18,0.0,WeatherDisplay:10.37,2013-01-09 10:16:00,
2013-01-09 05:21:00,72.8,71.0,30.19,ESE,112,3.0,15.0,94,0.00,CLR,CLR,0.18,0.0,WeatherDisplay:10.37,2013-01-09 10:21:00,
2013-01-09 05:26:00,72.8,71.0,30.19,ESE,112,3.0,15.0,94,0.00,CLR,CLR,0.18,0.0,WeatherDisplay:10.37,2013-01-09 10:26:00,
2013-01-09 05:31:00,73.4,70.6,30.19,ESE,112,3.0,15.0,91,0.00,CLR,CLR,0.18,0.0,WeatherDisplay:10.37,2013-01-09 10:31:00,
2013-01-09 05:36:00,73.4,70.6,30.19,ESE,112,3.0,15.0,91,0.00,CLR,CLR,0.18,0.0,WeatherDisplay:10.37,2013-01-09 10:36:00,
2013-01-09 05:41:00,73.4,70.6,30.19,ESE,112,3.0,15.0,91,0.00,CLR,CLR,0.18,0.0,WeatherDisplay:10.37,2013-01-09 10:41:00,
2013-01-09 05:46:00,73.4,70.6,30.19,ESE,112,3.0,15.0,91,0.00,CLR,CLR,0.18,0.0,WeatherDisplay:10.37,2013-01-09 10:46:00,
2013-01-09 05:51:00,73.4,70.6,30.19,ESE,112,3.0,15.0,91,0.00,CLR,CLR,0.18,0.0,WeatherDisplay:10.37,2013-01-09 10:51:00,
2013-01-09 05:56:00,73.4,70.6,30.19,ESE,112,3.0,15.0,91,0.00,CLR,CLR,0.18,0.0,WeatherDisplay:10.37,2013-01-09 10:56:00,
2013-01-09 06:01:00,74.0,70.9,30.19,ESE,112,5.0,15.0,90,0.00,CLR,CLR,0.18,0.0,WeatherDisplay:10.37,2013-01-09 11:01:00,
2013-01-09 06:06:00,74.0,70.9,30.19,ESE,112,5.0,12.0,90,0.00,CLR,CLR,0.18,0.0,WeatherDisplay:10.37,2013-01-09 11:06:00,
2013-01-09 06:11:00,74.0,70.9,30.19,ESE,112,5.0,12.0,90,0.00,CLR,CLR,0.18,0.0,WeatherDisplay:10.37,2013-01-09 11:11:00,
2013-01-09 06:16:00,74.0,70.9,30.19,ESE,112,5.0,12.0,90,0.00,CLR,CLR,0.18,0.0,WeatherDisplay:10.37,2013-01-09 11:16:00,
2013-01-09 06:21:00,74.0,70.9,30.19,ESE,112,5.0,12.0,90,0.00,CLR,CLR,0.18,0.0,WeatherDisplay:10.37,2013-01-09 11:21:00,
2013-01-09 06:26:00,74.0,70.9,30.19,ESE,112,5.0,12.0,90,0.00,CLR,CLR,0.18,0.0,WeatherDisplay:10.37,2013-01-09 11:26:00,
2013-01-09 06:31:00,74.1,70.6,30.20,ESE,112,3.0,12.0,89,0.00,CLR,CLR,0.18,0.0,WeatherDisplay:10.37,2013-01-09 11:31:00,
2013-01-09 06:36:00,74.1,70.6,30.20,ESE,112,3.0,9.0,89,0.00,CLR,CLR,0.18,0.0,WeatherDisplay:10.37,2013-01-09 11:36:00,
2013-01-09 06:41:00,74.1,70.6,30.20,ESE,112,3.0,9.0,89,0.00,CLR,CLR,0.18,0.0,WeatherDisplay:10.37,2013-01-09 11:41:00,
2013-01-09 06:46:00,74.1,70.6,30.20,ESE,112,3.0,9.0,89,0.00,CLR,CLR,0.18,0.0,WeatherDisplay:10.37,2013-01-09 11:46:00,
2013-01-09 06:51:00,74.1,70.6,30.20,ESE,112,3.0,9.0,89,0.00,CLR,CLR,0.18,0.0,WeatherDisplay:10.37,2013-01-09 11:51:00,
2013-01-09 06:56:00,74.1,70.6,30.20,ESE,112,3.0,9.0,89,0.00,CLR,CLR,0.18,0.0,WeatherDisplay:10.37,2013-01-09 11:56:00,
2013-01-09 07:01:00,74.3,70.2,30.21,ESE,112,5.0,12.0,87,0.00,CLR,CLR,0.18,0.0,WeatherDisplay:10.37,2013-01-09 12:01:00,
2013-01-09 07:06:00,74.3,70.2,30.21,ESE,112,5.0,12.0,87,0.00,CLR,CLR,0.18,0.0,WeatherDisplay:10.37,2013-01-09 12:06:00,
2013-01-09 07:11:00,74.3,70.2,30.21,ESE,112,5.0,12.0,87,0.00,CLR,CLR,0.18,0.0,WeatherDisplay:10.37,2013-01-09 12:11:00,
2013-01-09 07:16:00,74.3,70.2,30.21,ESE,112,5.0,12.0,87,0.00,CLR,CLR,0.18,0.0,WeatherDisplay:10.37,2013-01-09 12:16:00,
2013-01-09 07:21:00,74.3,70.2,30.21,ESE,112,5.0,12.0,87,0.00,CLR,CLR,0.18,0.0,WeatherDisplay:10.37,2013-01-09 12:21:00,
2013-01-09 07:26:00,74.3,70.2,30.21,ESE,112,5.0,12.0,87,0.00,CLR,CLR,0.18,0.0,WeatherDisplay:10.37,2013-01-09 12:26:00,
2013-01-09 07:31:00,74.3,70.2,30.23,ESE,112,3.0,13.0,87,0.00,CLR,CLR,0.18,9.0,WeatherDisplay:10.37,2013-01-09 12:31:00,
2013-01-09 07:36:00,74.3,70.2,30.23,ESE,112,3.0,13.0,87,0.00,CLR,CLR,0.18,9.0,WeatherDisplay:10.37,2013-01-09 12:36:00,
2013-01-09 07:41:00,74.3,70.2,30.23,ESE,112,3.0,13.0,87,0.00,CLR,CLR,0.18,9.0,WeatherDisplay:10.37,2013-01-09 12:41:00,
2013-01-09 07:46:00,74.3,70.2,30.23,ESE,112,3.0,13.0,87,0.00,CLR,CLR,0.18,9.0,WeatherDisplay:10.37,2013-01-09 12:46:00,
2013-01-09 07:51:00,74.3,70.2,30.23,ESE,112,3.0,13.0,87,0.00,CLR,CLR,0.18,9.0,WeatherDisplay:10.37,2013-01-09 12:51:00,
2013-01-09 07:56:00,74.3,70.2,30.23,ESE,112,3.0,13.0,87,0.00,CLR,CLR,0.18,9.0,WeatherDisplay:10.37,2013-01-09 12:56:00,
2013-01-09 08:01:00,75.2,70.4,30.24,ESE,112,3.0,13.0,85,0.00,CLR,CLR,0.18,51.0,WeatherDisplay:10.37,2013-01-09 13:01:00,
2013-01-09 08:06:00,75.2,70.4,30.24,ESE,112,3.0,11.0,85,0.00,CLR,CLR,0.18,51.0,WeatherDisplay:10.37,2013-01-09 13:06:00,
2013-01-09 08:11:00,75.2,70.4,30.24,ESE,112,3.0,11.0,85,0.00,CLR,CLR,0.18,51.0,WeatherDisplay:10.37,2013-01-09 13:11:00,
2013-01-09 08:16:00,75.2,70.4,30.24,ESE,112,3.0,11.0,85,0.00,CLR,CLR,0.18,51.0,WeatherDisplay:10.37,2013-01-09 13:16:00,
2013-01-09 08:21:00,75.2,70.4,30.24,ESE,112,3.0,11.0,85,0.00,CLR,CLR,0.18,51.0,WeatherDisplay:10.37,2013-01-09 13:21:00,
2013-01-09 08:26:00,75.2,70.4,30.24,ESE,112,3.0,11.0,85,0.00,CLR,CLR,0.18,51.0,WeatherDisplay:10.37,2013-01-09 13:26:00,
2013-01-09 08:31:00,76.5,70.9,30.25,ESE,112,5.0,12.0,83,0.00,CLR,CLR,0.18,136.0,WeatherDisplay:10.37,2013-01-09 13:31:00,
2013-01-09 08:36:00,76.5,70.9,30.25,ESE,112,5.0,12.0,83,0.00,CLR,CLR,0.18,136.0,WeatherDisplay:10.37,2013-01-09 13:36:00,
2013-01-09 08:41:00,76.5,70.9,30.25,ESE,112,5.0,12.0,83,0.00,CLR,CLR,0.18,136.0,WeatherDisplay:10.37,2013-01-09 13:41:00,
2013-01-09 08:49:00,77.1,71.5,30.26,SE,138,12.0,12.0,83,0.00,OVC,,0.18,292.0,WeatherDisplay:10.37,2013-01-09 13:49:00,
2013-01-09 08:54:00,77.5,71.2,30.26,SE,136,5.6,9.0,81,0.00,CLR,,0.18,279.0,WeatherDisplay:10.37,2013-01-09 13:54:00,
2013-01-09 09:00:00,77.8,71.1,30.26,SE,130,6.8,11.5,80,0.00,CLR,,0.18,301.0,WeatherDisplay:10.37,2013-01-09 14:00:00,
2013-01-09 09:05:00,77.9,70.9,30.26,East,101,5.4,6.9,79,0.00,CLR,,0.18,288.0,WeatherDisplay:10.37,2013-01-09 14:05:00,
2013-01-09 09:11:00,78.2,70.8,30.27,SSE,148,4.7,10.4,78,0.00,CLR,,0.18,336.0,WeatherDisplay:10.37,2013-01-09 14:11:00,
2013-01-09 09:16:00,78.5,71.4,30.27,SE,138,5.4,10.4,79,0.00,CLR,,0.18,322.0,WeatherDisplay:10.37,2013-01-09 14:16:00,
2013-01-09 09:21:00,78.7,71.6,30.27,SE,130,5.0,13.0,79,0.00,CLR,CLR,0.18,350.0,WeatherDisplay:10.37,2013-01-09 14:21:00,
2013-01-09 09:26:00,78.7,71.6,30.27,ESE,107,3.8,11.5,79,0.00,CLR,,0.18,373.0,WeatherDisplay:10.37,2013-01-09 14:26:00,
2013-01-09 09:31:00,78.8,71.0,30.27,ESE,103,6.2,11.5,77,0.00,FEW,,0.18,413.0,WeatherDisplay:10.37,2013-01-09 14:31:00,
2013-01-09 09:36:00,78.9,71.5,30.27,ESE,120,6.0,12.0,78,0.00,CLR,CLR,0.18,388.0,WeatherDisplay:10.37,2013-01-09 14:36:00,
2013-01-09 09:41:00,79.1,71.3,30.28,SE,135,5.0,9.0,77,0.00,CLR,CLR,0.18,413.0,WeatherDisplay:10.37,2013-01-09 14:41:00,
2013-01-09 09:46:00,79.3,71.1,30.27,SSE,158,5.0,15.0,76,0.00,CLR,,0.18,431.0,WeatherDisplay:10.37,2013-01-09 14:46:00,
2013-01-09 09:51:00,79.3,71.5,30.27,ESE,117,4.1,6.9,77,0.00,CLR,,0.18,429.0,WeatherDisplay:10.37,2013-01-09 14:51:00,
2013-01-09 09:56:00,79.6,71.4,30.27,SE,130,5.6,9.2,76,0.00,CLR,,0.18,445.0,WeatherDisplay:10.37,2013-01-09 14:56:00,
2013-01-09 10:01:00,79.7,71.5,30.28,East,98,6.0,9.2,76,0.00,CLR,,0.18,473.0,WeatherDisplay:10.37,2013-01-09 15:01:00,
2013-01-09 10:06:00,79.9,71.3,30.28,SE,138,5.1,9.2,75,0.00,CLR,,0.18,443.0,WeatherDisplay:10.37,2013-01-09 15:06:00,
2013-01-09 10:11:00,80.0,71.4,30.27,SE,131,5.7,11.5,75,0.00,CLR,,0.18,469.0,WeatherDisplay:10.37,2013-01-09 15:11:00,
2013-01-09 10:16:00,80.1,71.1,30.28,ESE,121,5.2,9.2,74,0.00,CLR,,0.18,459.0,WeatherDisplay:10.37,2013-01-09 15:16:00,
2013-01-09 10:21:00,80.2,71.6,30.28,SE,136,6.0,10.0,75,0.00,CLR,CLR,0.18,503.0,WeatherDisplay:10.37,2013-01-09 15:21:00,
2013-01-09 10:26:00,80.2,70.8,30.28,ESE,110,5.9,5.9,73,0.00,FEW,,0.18,232.0,WeatherDisplay:10.37,2013-01-09 15:26:00,
2013-01-09 10:31:00,80.3,71.3,30.27,SSE,152,4.4,8.0,74,0.00,FEW,,0.18,543.0,WeatherDisplay:10.37,2013-01-09 15:31:00,
2013-01-09 10:36:00,80.4,71.3,30.27,SE,131,4.1,9.2,74,0.00,CLR,,0.18,545.0,WeatherDisplay:10.37,2013-01-09 15:36:00,
2013-01-09 10:41:00,80.5,71.4,30.27,ESE,114,6.4,9.2,74,0.00,CLR,,0.18,345.0,WeatherDisplay:10.37,2013-01-09 15:41:00,
2013-01-09 10:46:00,80.3,71.3,30.27,ESE,111,7.0,8.1,74,0.00,FEW,,0.18,200.0,WeatherDisplay:10.37,2013-01-09 15:46:00,
2013-01-09 10:51:00,80.0,71.4,30.27,SE,124,3.0,9.0,75,0.00,SCT,SCT,0.18,417.0,WeatherDisplay:10.37,2013-01-09 15:51:00,
2013-01-09 10:56:00,80.3,72.0,30.27,SE,130,7.0,13.0,76,0.00,SCT,SCT,0.18,564.0,WeatherDisplay:10.37,2013-01-09 15:56:00,
2013-01-09 11:01:00,80.5,72.2,30.26,ESE,119,6.0,10.0,76,0.00,SCT,SCT,0.18,181.0,WeatherDisplay:10.37,2013-01-09 16:01:00,
2013-01-09 11:06:00,80.2,72.0,30.26,SE,124,6.0,14.0,76,0.00,SCT,SCT,0.18,318.0,WeatherDisplay:10.37,2013-01-09 16:06:00,
2013-01-09 11:11:00,80.4,72.9,30.26,SE,124,5.0,9.0,78,0.00,FEW,FEW,0.18,571.0,WeatherDisplay:10.37,2013-01-09 16:11:00,
2013-01-09 11:16:00,80.9,72.6,30.26,ESE,114,7.0,12.0,76,0.00,CLR,CLR,0.18,564.0,WeatherDisplay:10.37,2013-01-09 16:16:00,
2013-01-09 11:21:00,81.2,72.9,30.26,ESE,116,5.0,12.0,76,0.00,FEW,FEW,0.18,302.0,WeatherDisplay:10.37,2013-01-09 16:21:00,
2013-01-09 11:27:00,81.1,73.2,30.25,SE,140,4.4,7.0,77,0.00,SCT,,0.18,635.0,WeatherDisplay:10.37,2013-01-09 16:27:00,
2013-01-09 11:32:00,81.2,72.5,30.25,ESE,112,6.4,9.2,75,0.00,SCT,,0.18,650.0,WeatherDisplay:10.37,2013-01-09 16:32:00,
2013-01-09 11:37:00,81.1,72.0,30.25,ESE,108,7.5,12.0,74,0.00,FEW,,0.18,647.0,WeatherDisplay:10.37,2013-01-09 16:37:00,
2013-01-09 11:42:00,81.0,72.7,30.25,South,171,5.6,9.2,76,0.00,CLR,,0.18,288.0,WeatherDisplay:10.37,2013-01-09 16:42:00,
2013-01-09 11:47:00,80.7,72.4,30.25,ESE,118,7.1,11.5,76,0.00,SCT,,0.18,229.0,WeatherDisplay:10.37,2013-01-09 16:47:00,
2013-01-09 11:52:00,80.5,73.0,30.25,ESE,111,5.7,9.0,78,0.00,SCT,,0.18,629.0,WeatherDisplay:10.37,2013-01-09 16:52:00,
2013-01-09 11:57:00,80.5,71.8,30.25,East,90,5.8,9.2,75,0.00,FEW,,0.18,629.0,WeatherDisplay:10.37,2013-01-09 16:57:00,
2013-01-09 12:02:00,80.7,72.4,30.24,ENE,76,6.7,11.5,76,0.00,CLR,,0.18,598.0,WeatherDisplay:10.37,2013-01-09 17:02:00,
2013-01-09 12:07:00,81.1,72.4,30.24,SE,134,6.2,9.2,75,0.00,FEW,,0.18,320.0,WeatherDisplay:10.37,2013-01-09 17:07:00,
2013-01-09 12:12:00,81.2,72.5,30.24,SE,134,5.8,8.1,75,0.00,FEW,,0.18,689.0,WeatherDisplay:10.37,2013-01-09 17:12:00,
2013-01-09 12:17:00,81.1,72.8,30.24,SSE,159,5.1,8.1,76,0.00,SCT,,0.18,476.0,WeatherDisplay:10.37,2013-01-09 17:17:00,
2013-01-09 12:22:00,81.3,73.0,30.24,SSE,152,6.1,9.2,76,0.00,SCT,,0.18,643.0,WeatherDisplay:10.37,2013-01-09 17:22:00,
2013-01-09 12:27:00,81.4,72.7,30.24,SE,144,5.4,9.2,75,0.00,CLR,,0.18,647.0,WeatherDisplay:10.37,2013-01-09 17:27:00,
2013-01-09 12:32:00,81.4,72.7,30.24,ESE,107,7.0,10.4,75,0.00,CLR,,0.18,626.0,WeatherDisplay:10.37,2013-01-09 17:32:00,
2013-01-09 12:37:00,81.4,72.7,30.24,East,84,4.9,8.1,75,0.00,CLR,,0.18,642.0,WeatherDisplay:10.37,2013-01-09 17:37:00,
2013-01-09 12:42:00,81.5,72.8,30.23,SE,131,3.4,5.8,75,0.00,CLR,,0.18,638.0,WeatherDisplay:10.37,2013-01-09 17:42:00,
2013-01-09 12:47:00,81.0,71.9,30.23,ESE,108,5.8,10.4,74,0.00,FEW,,0.18,218.0,WeatherDisplay:10.37,2013-01-09 17:47:00,
2013-01-09 12:52:00,80.4,72.5,30.23,ESE,111,3.9,6.9,77,0.00,SCT,,0.18,661.0,WeatherDisplay:10.37,2013-01-09 17:52:00,
2013-01-09 12:57:00,80.7,72.4,30.23,ENE,63,5.0,10.0,76,0.00,SCT,,0.18,585.0,WeatherDisplay:10.37,2013-01-09 17:57:00,
2013-01-09 13:02:00,80.6,72.3,30.23,SSE,153,8.2,11.5,76,0.00,SCT,,0.18,297.0,WeatherDisplay:10.37,2013-01-09 18:02:00,
2013-01-09 13:07:00,80.5,72.2,30.23,East,96,7.3,9.2,76,0.00,FEW,,0.18,633.0,WeatherDisplay:10.37,2013-01-09 18:07:00,
2013-01-09 13:12:00,80.6,72.3,30.22,ESE,119,4.9,9.2,76,0.00,SCT,,0.18,209.0,WeatherDisplay:10.37,2013-01-09 18:12:00,
2013-01-09 13:17:00,80.5,72.6,30.22,East,82,2.5,8.1,77,0.00,BKN,,0.18,248.0,WeatherDisplay:10.37,2013-01-09 18:17:00,
2013-01-09 13:23:00,80.6,73.1,30.22,SSE,160,3.6,5.8,78,0.00,SCT,,0.18,545.0,WeatherDisplay:10.37,2013-01-09 18:23:00,
2013-01-09 13:28:00,80.9,73.0,30.22,ESE,121,3.2,8.0,77,0.00,SCT,,0.18,399.0,WeatherDisplay:10.37,2013-01-09 18:28:00,
2013-01-09 13:33:00,80.9,72.6,30.22,SE,127,5.1,9.2,76,0.00,SCT,,0.18,137.0,WeatherDisplay:10.37,2013-01-09 18:33:00,
2013-01-09 13:38:00,80.6,72.3,30.22,ESE,111,6.2,11.5,76,0.00,BKN,,0.18,561.0,WeatherDisplay:10.37,2013-01-09 18:38:00,
2013-01-09 13:41:00,80.6,72.3,30.22,SE,146,6.2,10.4,76,0.00,SCT,,0.18,534.0,WeatherDisplay:10.37,2013-01-09 18:41:00,
2013-01-09 13:44:00,80.7,72.4,30.22,SE,138,5.8,8.1,76,0.00,SCT,,0.18,550.0,WeatherDisplay:10.37,2013-01-09 18:44:00,
2013-01-09 13:45:00,80.8,72.5,30.22,SE,131,5.7,10.0,76,0.00,FEW,,0.18,550.0,WeatherDisplay:10.37,2013-01-09 18:45:00,
2013-01-09 13:47:00,80.9,72.6,30.22,ESE,118,5.3,10.4,76,0.00,FEW,,0.18,550.0,WeatherDisplay:10.37,2013-01-09 18:47:00,
2013-01-09 13:48:00,81.0,72.7,30.22,East,98,3.0,6.9,76,0.00,CLR,,0.18,613.0,WeatherDisplay:10.37,2013-01-09 18:48:00,
2013-01-09 13:49:00,81.0,72.7,30.22,East,85,3.5,8.0,76,0.00,CLR,,0.18,613.0,WeatherDisplay:10.37,2013-01-09 18:49:00,
2013-01-09 13:54:00,80.8,72.1,30.22,ESE,107,4.5,10.4,75,0.00,FEW,,0.18,578.0,WeatherDisplay:10.37,2013-01-09 18:54:00,
2013-01-09 13:59:00,80.8,72.5,30.22,ESE,103,4.8,8.1,76,0.00,FEW,,0.18,531.0,WeatherDisplay:10.37,2013-01-09 18:59:00,
2013-01-09 14:04:00,81.0,71.9,30.22,SE,140,6.4,11.5,74,0.00,CLR,,0.18,555.0,WeatherDisplay:10.37,2013-01-09 19:04:00,
2013-01-09 14:09:00,81.1,72.4,30.22,SE,125,5.7,9.2,75,0.00,FEW,,0.18,578.0,WeatherDisplay:10.37,2013-01-09 19:09:00,
2013-01-09 14:14:00,81.3,72.2,30.22,ESE,117,4.3,8.0,74,0.00,CLR,,0.18,496.0,WeatherDisplay:10.37,2013-01-09 19:14:00,
2013-01-09 14:19:00,81.3,72.6,30.22,ESE,119,3.8,5.8,75,0.00,FEW,,0.18,464.0,WeatherDisplay:10.37,2013-01-09 19:19:00,
2013-01-09 14:24:00,81.4,72.7,30.22,East,99,3.0,8.1,75,0.00,SCT,,0.18,478.0,WeatherDisplay:10.37,2013-01-09 19:24:00,
2013-01-09 14:29:00,81.3,72.6,30.22,ESE,111,6.4,11.5,75,0.00,CLR,,0.18,478.0,WeatherDisplay:10.37,2013-01-09 19:29:00,
2013-01-09 14:34:00,81.4,72.3,30.22,ESE,104,5.1,8.1,74,0.00,CLR,,0.18,483.0,WeatherDisplay:10.37,2013-01-09 19:34:00,
2013-01-09 14:39:00,81.5,72.8,30.22,East,101,3.0,8.1,75,0.00,CLR,,0.18,439.0,WeatherDisplay:10.37,2013-01-09 19:39:00,
2013-01-09 14:44:00,81.7,72.2,30.22,East,93,6.6,11.5,73,0.00,CLR,,0.18,432.0,WeatherDisplay:10.37,2013-01-09 19:44:00,
2013-01-09 14:49:00,81.8,72.7,30.22,SE,133,4.5,6.9,74,0.00,CLR,,0.18,408.0,WeatherDisplay:10.37,2013-01-09 19:49:00,
2013-01-09 14:55:00,81.6,71.7,30.22,SE,124,7.1,10.4,72,0.00,FEW,,0.18,410.0,WeatherDisplay:10.37,2013-01-09 19:55:00,
2013-01-09 15:00:00,81.1,72.0,30.22,ESE,113,5.0,11.5,74,0.00,CLR,,0.18,408.0,WeatherDisplay:10.37,2013-01-09 20:00:00,
2013-01-09 15:05:00,80.7,72.0,30.22,SE,124,3.2,8.1,75,0.00,FEW,,0.18,494.0,WeatherDisplay:10.37,2013-01-09 20:05:00,
2013-01-09 15:10:00,80.9,72.2,30.22,East,94,3.5,5.8,75,0.00,CLR,,0.18,415.0,WeatherDisplay:10.37,2013-01-09 20:10:00,
2013-01-09 15:15:00,80.7,72.4,30.22,SE,144,2.2,3.5,76,0.00,FEW,,0.18,345.0,WeatherDisplay:10.37,2013-01-09 20:15:00,
2013-01-09 15:20:00,80.9,72.6,30.22,ESE,122,6.1,10.4,76,0.00,SCT,,0.18,332.0,WeatherDisplay:10.37,2013-01-09 20:20:00,
2013-01-09 15:25:00,81.0,71.9,30.22,East,101,6.4,11.5,74,0.00,FEW,,0.18,149.0,WeatherDisplay:10.37,2013-01-09 20:25:00,
2013-01-09 15:30:00,80.9,72.2,30.22,ESE,122,5.1,8.1,75,0.00,SCT,,0.18,360.0,WeatherDisplay:10.37,2013-01-09 20:30:00,
2013-01-09 15:35:00,80.6,71.9,30.22,ESE,111,4.9,8.1,75,0.00,SCT,,0.18,86.0,WeatherDisplay:10.37,2013-01-09 20:35:00,
2013-01-09 15:40:00,80.2,71.6,30.22,ESE,108,3.0,5.8,75,0.00,SCT,,0.18,258.0,WeatherDisplay:10.37,2013-01-09 20:40:00,
2013-01-09 15:46:00,80.1,71.8,30.22,ESE,121,3.0,5.8,76,0.00,SCT,,0.18,267.0,WeatherDisplay:10.37,2013-01-09 20:46:00,
2013-01-09 15:51:00,80.1,71.8,30.22,SE,132,3.8,7.0,76,0.00,FEW,,0.18,239.0,WeatherDisplay:10.37,2013-01-09 20:51:00,
2013-01-09 15:56:00,79.8,71.6,30.22,ESE,107,4.8,6.9,76,0.00,FEW,,0.18,84.0,WeatherDisplay:10.37,2013-01-09 20:56:00,
2013-01-09 16:01:00,79.5,71.3,30.22,East,101,4.9,8.1,76,0.00,SCT,,0.18,72.0,WeatherDisplay:10.37,2013-01-09 21:01:00,
2013-01-09 16:06:00,79.4,71.6,30.22,East,90,4.3,8.1,77,0.00,BKN,,0.18,60.0,WeatherDisplay:10.37,2013-01-09 21:06:00,
2013-01-09 16:11:00,79.3,71.5,30.22,East,86,3.7,8.1,77,0.00,BKN,,0.18,62.0,WeatherDisplay:10.37,2013-01-09 21:11:00,
2013-01-09 16:16:00,79.3,71.8,30.22,East,88,3.0,5.0,78,0.00,BKN,,0.18,63.0,WeatherDisplay:10.37,2013-01-09 21:16:00,
2013-01-09 16:21:00,79.3,71.5,30.22,East,80,4.7,9.2,77,0.00,BKN,,0.18,70.0,WeatherDisplay:10.37,2013-01-09 21:21:00,
2013-01-09 16:26:00,79.2,71.7,30.22,East,88,3.3,8.1,78,0.00,BKN,,0.18,79.0,WeatherDisplay:10.37,2013-01-09 21:26:00,
2013-01-09 16:31:00,79.1,71.6,30.22,SE,142,4.4,8.1,78,0.00,BKN,,0.18,47.0,WeatherDisplay:10.37,2013-01-09 21:31:00,
2013-01-09 16:36:00,78.7,71.6,30.23,ESE,113,3.4,4.6,79,0.00,BKN,,0.18,58.0,WeatherDisplay:10.37,2013-01-09 21:36:00,
2013-01-09 16:41:00,78.5,71.8,30.23,ESE,122,3.5,8.0,80,0.00,BKN,,0.18,62.0,WeatherDisplay:10.37,2013-01-09 21:41:00,
2013-01-09 16:46:00,78.3,71.6,30.23,East,98,4.7,7.0,80,0.00,BKN,,0.18,47.0,WeatherDisplay:10.37,2013-01-09 21:46:00,
2013-01-09 16:51:00,78.2,71.5,30.23,ENE,74,3.5,8.1,80,0.00,BKN,,0.18,30.0,WeatherDisplay:10.37,2013-01-09 21:51:00,
2013-01-09 16:56:00,77.9,71.2,30.23,East,98,1.9,5.8,80,0.00,BKN,,0.18,32.0,WeatherDisplay:10.37,2013-01-09 21:56:00,
2013-01-09 17:01:00,77.5,70.8,30.23,ENE,76,2.1,4.6,80,0.00,BKN,,0.18,39.0,WeatherDisplay:10.37,2013-01-09 22:01:00,
2013-01-09 17:06:00,77.3,70.6,30.23,ESE,111,4.5,6.9,80,0.00,BKN,,0.18,28.0,WeatherDisplay:10.37,2013-01-09 22:06:00,
2013-01-09 17:11:00,77.2,70.9,30.23,ENE,78,3.4,6.9,81,0.00,SCT,,0.18,42.0,WeatherDisplay:10.37,2013-01-09 22:11:00,
2013-01-09 17:16:00,77.2,71.3,30.23,East,95,5.0,8.1,82,0.00,BKN,,0.18,18.0,WeatherDisplay:10.37,2013-01-09 22:16:00,
2013-01-09 17:21:00,77.0,70.7,30.23,ENE,67,1.3,5.8,81,0.00,BKN,,0.18,16.0,WeatherDisplay:10.37,2013-01-09 22:21:00,
2013-01-09 17:26:00,76.8,70.9,30.23,East,98,0.4,5.8,82,0.00,SCT,,0.18,21.0,WeatherDisplay:10.37,2013-01-09 22:26:00,
2013-01-09 17:31:00,76.5,70.9,30.24,East,101,2.6,4.6,83,0.00,SCT,,0.18,12.0,WeatherDisplay:10.37,2013-01-09 22:31:00,
2013-01-09 17:36:00,76.4,70.9,30.24,East,99,2.6,5.0,83,0.00,SCT,,0.18,7.0,WeatherDisplay:10.37,2013-01-09 22:36:00,
2013-01-09 17:41:00,76.3,70.8,30.24,East,88,2.2,5.8,83,0.00,OVC,,0.18,5.0,WeatherDisplay:10.37,2013-01-09 22:41:00,
2013-01-09 17:46:00,76.3,70.8,30.24,ESE,119,3.0,5.8,83,0.00,OVC,,0.18,0.0,WeatherDisplay:10.37,2013-01-09 22:46:00,
2013-01-09 17:51:00,76.1,70.6,30.24,ENE,61,2.9,5.8,83,0.00,OVC,,0.18,0.0,WeatherDisplay:10.37,2013-01-09 22:51:00,
2013-01-09 17:56:00,76.0,70.5,30.24,East,80,2.3,8.1,83,0.00,OVC,,0.18,0.0,WeatherDisplay:10.37,2013-01-09 22:56:00,
2013-01-09 18:01:00,76.0,70.8,30.25,East,101,1.1,3.5,84,0.00,CLR,,0.18,0.0,WeatherDisplay:10.37,2013-01-09 23:01:00,
2013-01-09 18:06:00,76.0,70.5,30.25,East,82,2.2,4.6,83,0.00,CLR,,0.18,0.0,WeatherDisplay:10.37,2013-01-09 23:06:00,
2013-01-09 18:11:00,76.1,70.6,30.25,ESE,109,2.0,7.0,83,0.00,CLR,CLR,0.18,0.0,WeatherDisplay:10.37,2013-01-09 23:11:00,
2013-01-09 18:17:00,75.9,70.0,30.25,ESE,107,3.7,7.0,82,0.00,CLR,,0.18,0.0,WeatherDisplay:10.37,2013-01-09 23:17:00,
2013-01-09 18:22:00,75.8,70.3,30.25,ESE,118,1.3,3.5,83,0.00,CLR,,0.18,0.0,WeatherDisplay:10.37,2013-01-09 23:22:00,
2013-01-09 18:27:00,75.8,70.3,30.25,East,97,2.2,6.9,83,0.00,CLR,,0.18,0.0,WeatherDisplay:10.37,2013-01-09 23:27:00,
2013-01-09 18:32:00,75.7,70.2,30.25,East,101,3.6,6.9,83,0.00,CLR,,0.18,0.0,WeatherDisplay:10.37,2013-01-09 23:32:00,
2013-01-09 18:37:00,75.7,70.2,30.25,SE,126,4.6,5.8,83,0.00,CLR,,0.18,0.0,WeatherDisplay:10.37,2013-01-09 23:37:00,
2013-01-09 18:43:00,75.6,70.1,30.25,ESE,113,3.1,6.9,83,0.00,CLR,,0.18,0.0,WeatherDisplay:10.37,2013-01-09 23:43:00,
2013-01-09 18:48:00,75.6,70.1,30.25,East,86,4.1,5.8,83,0.00,CLR,,0.18,0.0,WeatherDisplay:10.37,2013-01-09 23:48:00,
2013-01-09 18:53:00,75.7,69.8,30.26,SE,140,5.0,6.9,82,0.00,CLR,,0.18,0.0,WeatherDisplay:10.37,2013-01-09 23:53:00,
2013-01-09 18:58:00,75.8,70.3,30.26,ESE,113,3.5,8.0,83,0.00,CLR,,0.18,0.0,WeatherDisplay:10.37,2013-01-09 23:58:00,
2013-01-09 19:03:00,75.7,69.8,30.26,East,101,3.6,8.0,82,0.00,CLR,,0.18,0.0,WeatherDisplay:10.37,2013-01-10 00:03:00,
2013-01-09 19:08:00,75.7,69.8,30.26,ESE,117,3.6,8.1,82,0.00,CLR,,0.18,0.0,WeatherDisplay:10.37,2013-01-10 00:08:00,
2013-01-09 19:13:00,75.7,69.8,30.26,ESE,111,4.3,6.9,82,0.00,CLR,,0.18,0.0,WeatherDisplay:10.37,2013-01-10 00:13:00,
2013-01-09 19:18:00,75.8,69.9,30.26,ESE,113,4.2,6.9,82,0.00,CLR,,0.18,0.0,WeatherDisplay:10.37,2013-01-10 00:18:00,
2013-01-09 19:23:00,75.8,69.9,30.26,NE,49,3.4,6.9,82,0.00,CLR,,0.18,0.0,WeatherDisplay:10.37,2013-01-10 00:23:00,
2013-01-09 19:29:00,75.8,71.3,30.26,East,79,5.4,9.2,86,0.00,CLR,,0.18,0.0,WeatherDisplay:10.37,2013-01-10 00:29:00,
2013-01-09 19:34:00,75.7,71.2,30.26,East,81,3.9,8.1,86,0.00,CLR,,0.18,0.0,WeatherDisplay:10.37,2013-01-10 00:34:00,
2013-01-09 19:39:00,75.8,71.3,30.26,ENE,77,3.0,6.9,86,0.00,CLR,,0.18,0.0,WeatherDisplay:10.37,2013-01-10 00:39:00,
2013-01-09 19:44:00,75.8,71.3,30.26,ENE,67,4.1,7.0,86,0.00,CLR,,0.18,0.0,WeatherDisplay:10.37,2013-01-10 00:44:00,
2013-01-09 19:49:00,75.7,71.6,30.26,East,94,5.6,8.1,87,0.00,CLR,,0.18,0.0,WeatherDisplay:10.37,2013-01-10 00:49:00,
2013-01-09 19:54:00,75.5,71.4,30.27,East,85,5.7,8.1,87,0.00,CLR,,0.18,0.0,WeatherDisplay:10.37,2013-01-10 00:54:00,
2013-01-09 19:59:00,75.5,71.4,30.27,ENE,67,5.6,9.2,87,0.00,CLR,,0.18,0.0,WeatherDisplay:10.37,2013-01-10 00:59:00,
2013-01-09 20:04:00,75.6,71.5,30.27,East,95,4.6,8.1,87,0.00,CLR,,0.18,0.0,WeatherDisplay:10.37,2013-01-10 01:04:00,
2013-01-09 20:09:00,75.7,71.6,30.27,East,90,1.4,3.5,87,0.00,CLR,,0.18,0.0,WeatherDisplay:10.37,2013-01-10 01:09:00,
2013-01-09 20:14:00,75.7,71.6,30.27,ENE,68,2.4,5.0,87,0.00,CLR,,0.18,0.0,WeatherDisplay:10.37,2013-01-10 01:14:00,
2013-01-09 20:19:00,75.5,71.4,30.27,ENE,63,5.5,9.2,87,0.00,CLR,,0.18,0.0,WeatherDisplay:10.37,2013-01-10 01:19:00,
2013-01-09 20:24:00,75.5,71.4,30.27,ENE,70,4.2,10.4,87,0.00,CLR,,0.18,0.0,WeatherDisplay:10.37,2013-01-10 01:24:00,
2013-01-09 20:29:00,75.7,71.6,30.27,East,81,4.9,10.4,87,0.00,CLR,,0.18,0.0,WeatherDisplay:10.37,2013-01-10 01:29:00,
2013-01-09 20:34:00,75.7,71.6,30.27,ENE,78,3.9,5.8,87,0.00,CLR,,0.18,0.0,WeatherDisplay:10.37,2013-01-10 01:34:00,
2013-01-09 20:39:00,75.6,71.5,30.27,East,82,6.4,11.5,87,0.00,CLR,,0.18,0.0,WeatherDisplay:10.37,2013-01-10 01:39:00,
2013-01-09 20:45:00,75.4,71.3,30.28,ENE,72,3.8,9.2,87,0.00,CLR,,0.18,0.0,WeatherDisplay:10.37,2013-01-10 01:45:00,
2013-01-09 20:50:00,75.4,71.3,30.28,East,88,5.2,6.9,87,0.00,CLR,,0.18,0.0,WeatherDisplay:10.37,2013-01-10 01:50:00,
2013-01-09 20:55:00,75.5,71.4,30.28,East,85,7.1,10.4,87,0.00,CLR,,0.18,0.0,WeatherDisplay:10.37,2013-01-10 01:55:00,
2013-01-09 21:00:00,75.5,71.4,30.28,ESE,105,4.0,8.1,87,0.00,CLR,,0.18,0.0,WeatherDisplay:10.37,2013-01-10 02:00:00,
2013-01-09 21:05:00,75.3,71.2,30.28,ENE,63,4.8,9.2,87,0.00,CLR,,0.18,0.0,WeatherDisplay:10.37,2013-01-10 02:05:00,
2013-01-09 21:10:00,75.2,71.1,30.28,ENE,67,5.2,11.0,87,0.00,CLR,,0.18,0.0,WeatherDisplay:10.37,2013-01-10 02:10:00,
2013-01-09 21:15:00,75.1,71.0,30.28,East,89,3.1,5.0,87,0.00,CLR,,0.18,0.0,WeatherDisplay:10.37,2013-01-10 02:15:00,
2013-01-09 21:20:00,75.1,71.0,30.28,ENE,78,3.3,7.0,87,0.00,CLR,,0.18,0.0,WeatherDisplay:10.37,2013-01-10 02:20:00,
2013-01-09 21:25:00,75.2,71.1,30.28,ENE,66,4.9,8.1,87,0.00,CLR,,0.18,0.0,WeatherDisplay:10.37,2013-01-10 02:25:00,
2013-01-09 21:30:00,75.0,70.5,30.28,ESE,113,4.0,9.2,86,0.00,CLR,,0.18,0.0,WeatherDisplay:10.37,2013-01-10 02:30:00,
2013-01-09 21:35:00,74.8,70.3,30.28,SE,134,5.3,8.1,86,0.00,CLR,,0.18,0.0,WeatherDisplay:10.37,2013-01-10 02:35:00,
2013-01-09 21:40:00,74.8,70.3,30.28,East,83,4.2,8.1,86,0.00,CLR,,0.18,0.0,WeatherDisplay:10.37,2013-01-10 02:40:00,
2013-01-09 21:45:00,74.8,70.3,30.28,ENE,77,6.0,9.2,86,0.00,CLR,,0.18,0.0,WeatherDisplay:10.37,2013-01-10 02:45:00,
2013-01-09 21:50:00,74.8,70.3,30.28,ESE,111,4.6,8.1,86,0.00,CLR,,0.18,0.0,WeatherDisplay:10.37,2013-01-10 02:50:00,
2013-01-09 21:55:00,74.9,70.4,30.28,ESE,103,2.8,7.0,86,0.00,CLR,,0.18,0.0,WeatherDisplay:10.37,2013-01-10 02:55:00,
2013-01-09 22:00:00,75.0,70.5,30.28,East,98,5.9,12.7,86,0.00,CLR,,0.18,0.0,WeatherDisplay:10.37,2013-01-10 03:00:00,
2013-01-09 22:06:00,75.0,70.6,30.28,East,87,5.0,10.0,86,0.00,CLR,CLR,0.18,0.0,WeatherDisplay:10.37,2013-01-10 03:06:00,
2013-01-09 22:11:00,74.9,70.4,30.28,East,93,5.0,12.0,86,0.00,CLR,CLR,0.18,0.0,WeatherDisplay:10.37,2013-01-10 03:11:00,
2013-01-09 22:16:00,74.8,70.3,30.28,East,94,5.2,8.1,86,0.00,CLR,,0.18,0.0,WeatherDisplay:10.37,2013-01-10 03:16:00,
2013-01-09 22:21:00,74.6,70.1,30.28,East,90,6.0,12.0,86,0.00,CLR,CLR,0.18,0.0,WeatherDisplay:10.37,2013-01-10 03:21:00,
2013-01-09 22:26:00,74.6,70.1,30.28,East,98,6.0,10.0,86,0.00,CLR,CLR,0.18,0.0,WeatherDisplay:10.37,2013-01-10 03:26:00,
2013-01-09 22:31:00,74.7,70.2,30.28,East,92,3.0,9.0,86,0.00,CLR,CLR,0.18,0.0,WeatherDisplay:10.37,2013-01-10 03:31:00,
2013-01-09 22:36:00,74.7,70.2,30.28,ESE,115,3.8,5.8,86,0.00,CLR,,0.18,0.0,WeatherDisplay:10.37,2013-01-10 03:36:00,
2013-01-09 22:41:00,74.6,70.1,30.28,East,92,5.0,9.0,86,0.00,CLR,CLR,0.18,0.0,WeatherDisplay:10.37,2013-01-10 03:41:00,
2013-01-09 22:46:00,74.5,70.0,30.28,East,91,5.0,12.0,86,0.00,CLR,CLR,0.18,0.0,WeatherDisplay:10.37,2013-01-10 03:46:00,
2013-01-09 22:51:00,74.4,69.9,30.28,East,90,5.0,12.0,86,0.00,CLR,CLR,0.18,0.0,WeatherDisplay:10.37,2013-01-10 03:51:00,
2013-01-09 22:56:00,74.5,70.4,30.28,ESE,107,5.0,9.0,87,0.00,CLR,CLR,0.18,0.0,WeatherDisplay:10.37,2013-01-10 03:56:00,
2013-01-09 23:01:00,74.6,70.1,30.28,East,90,7.7,10.0,86,0.00,CLR,,0.18,0.0,WeatherDisplay:10.37,2013-01-10 04:01:00,
2013-01-09 23:06:00,74.6,69.8,30.28,ESE,103,6.0,10.0,85,0.00,CLR,CLR,0.18,0.0,WeatherDisplay:10.37,2013-01-10 04:06:00,
2013-01-09 23:11:00,74.5,69.7,30.28,ESE,110,5.0,9.0,85,0.00,CLR,CLR,0.18,0.0,WeatherDisplay:10.37,2013-01-10 04:11:00,
2013-01-09 23:16:00,74.5,69.7,30.29,ESE,114,5.0,10.0,85,0.00,CLR,CLR,0.18,0.0,WeatherDisplay:10.37,2013-01-10 04:16:00,
2013-01-09 23:21:00,74.4,69.6,30.28,ESE,106,5.0,9.0,85,0.00,CLR,CLR,0.18,0.0,WeatherDisplay:10.37,2013-01-10 04:21:00,
2013-01-09 23:26:00,74.4,69.6,30.28,ESE,108,6.0,12.0,85,0.00,CLR,CLR,0.18,0.0,WeatherDisplay:10.37,2013-01-10 04:26:00,
2013-01-09 23:31:00,74.6,69.8,30.28,ESE,107,6.0,12.0,85,0.00,CLR,CLR,0.18,0.0,WeatherDisplay:10.37,2013-01-10 04:31:00,
2013-01-09 23:36:00,74.6,69.5,30.28,East,100,5.0,12.0,84,0.00,CLR,CLR,0.18,0.0,WeatherDisplay:10.37,2013-01-10 04:36:00,
2013-01-09 23:41:00,74.6,69.4,30.28,East,100,5.0,12.0,84,0.00,CLR,CLR,0.18,0.0,WeatherDisplay:10.37,2013-01-10 04:41:00,
2013-01-09 23:46:00,74.6,69.4,30.28,SE,125,5.9,9.2,84,0.00,CLR,,0.18,0.0,WeatherDisplay:10.37,2013-01-10 04:46:00,
2013-01-09 23:51:00,74.6,69.4,30.28,ESE,117,3.8,8.1,84,0.00,CLR,,0.18,0.0,WeatherDisplay:10.37,2013-01-10 04:51:00,
2013-01-09 23:56:00,74.6,69.4,30.28,SE,126,6.2,8.1,84,0.00,CLR,,0.18,0.0,WeatherDisplay:10.37,2013-01-10 04:56:00,